| time (UTC) | temp F | wind direction | speed knots | gust knots | rain 1hr in | rain 24hr in | rain mn in | humidity % | barometer mb |
| 20260506112527 | 68 | 110 | 0.9 | 10.4 | 0.00 | 0.00 | 0.00 | 39 | 1012.4 |
| 20260506112025 | 69 | 96 | 5.2 | 12.2 | 0.00 | 0.00 | 0.00 | 44 | 1012.5 |
| 20260506111525 | 69 | 90 | 7.0 | 12.2 | 0.00 | 0.00 | 0.00 | 42 | 1012.5 |
| 20260506111025 | 68 | 114 | 3.5 | 9.6 | 0.00 | 0.00 | 0.00 | 45 | 1012.5 |
| 20260506110526 | 67 | 124 | 6.1 | 9.6 | 0.00 | 0.00 | 0.00 | 41 | 1012.6 |
| 20260506110026 | 67 | 133 | 2.6 | 8.7 | 0.00 | 0.00 | 0.00 | 46 | 1012.8 |
| 20260506105527 | 67 | 113 | 3.5 | 10.4 | 0.00 | 0.00 | 0.00 | 40 | 1012.9 |
| 20260506105025 | 67 | 104 | 3.5 | 10.4 | 0.00 | 0.00 | 0.00 | 42 | 1012.9 |
| 20260506104526 | 68 | 118 | 5.2 | 12.2 | 0.00 | 0.00 | 0.00 | 40 | 1012.8 |
| 20260506104026 | 68 | 110 | 7.8 | 12.2 | 0.00 | 0.00 | 0.00 | 41 | 1013.0 |
| 20260506103525 | 68 | 86 | 2.6 | 7.8 | 0.00 | 0.00 | 0.00 | 41 | 1013.1 |
| 20260506103025 | 68 | 111 | 3.5 | 9.6 | 0.00 | 0.00 | 0.00 | 44 | 1013.2 |
| 20260506102524 | 67 | 92 | 3.5 | 9.6 | 0.00 | 0.00 | 0.00 | 43 | 1013.3 |
| 20260506102024 | 67 | 102 | 4.3 | 10.4 | 0.00 | 0.00 | 0.00 | 43 | 1013.3 |
| 20260506101525 | 67 | 92 | 5.2 | 10.4 | 0.00 | 0.00 | 0.00 | 42 | 1013.5 |
| 20260506101024 | 67 | 120 | 0.9 | 8.7 | 0.00 | 0.00 | 0.00 | 41 | 1013.6 |
| 20260506100524 | 68 | 92 | 5.2 | 7.8 | 0.00 | 0.00 | 0.00 | 41 | 1013.6 |
| 20260506100026 | 67 | 52 | 0.9 | 11.3 | 0.00 | 0.00 | 0.00 | 40 | 1013.5 |
| 20260506095523 | 67 | 89 | 5.2 | 11.3 | 0.00 | 0.00 | 0.00 | 41 | 1013.6 |
| 20260506095023 | 67 | 100 | 4.3 | 8.7 | 0.00 | 0.00 | 0.00 | 42 | 1013.6 |
| 20260506094523 | 66 | 121 | 4.3 | 7.8 | 0.00 | 0.00 | 0.00 | 42 | 1013.8 |
| 20260506094024 | 66 | 135 | 5.2 | 8.7 | 0.00 | 0.00 | 0.00 | 42 | 1013.8 |
| 20260506093523 | 65 | 110 | 5.2 | 10.4 | 0.00 | 0.00 | 0.00 | 47 | 1013.9 |
| 20260506093024 | 65 | 113 | 5.2 | 10.4 | 0.00 | 0.00 | 0.00 | 50 | 1014.0 |
| 20260506092524 | 65 | 68 | 3.5 | 8.7 | 0.00 | 0.00 | 0.00 | 52 | 1014.2 |
| 20260506092025 | 64 | 94 | 5.2 | 8.7 | 0.00 | 0.00 | 0.00 | 52 | 1014.0 |
| 20260506091524 | 64 | 73 | 3.5 | 8.7 | 0.00 | 0.00 | 0.00 | 51 | 1014.0 |
| 20260506091024 | 62 | 124 | 3.5 | 7.8 | 0.00 | 0.00 | 0.00 | 54 | 1014.0 |
| 20260506090523 | 61 | 130 | 2.6 | 6.1 | 0.00 | 0.00 | 0.00 | 67 | 1014.0 |
| 20260506090023 | 60 | 99 | 2.6 | 6.1 | 0.00 | 0.00 | 0.00 | 68 | 1014.2 |
| 20260506085523 | 59 | 135 | 4.3 | 6.1 | 0.00 | 0.00 | 0.00 | 69 | 1014.2 |
| 20260506085023 | 58 | 113 | 4.3 | 7.8 | 0.00 | 0.00 | 0.00 | 71 | 1014.3 |
| 20260506084523 | 58 | 130 | 5.2 | 8.7 | 0.00 | 0.00 | 0.00 | 72 | 1014.3 |
| 20260506084023 | 57 | 120 | 5.2 | 8.7 | 0.00 | 0.00 | 0.00 | 71 | 1014.3 |
| 20260506083523 | 56 | 113 | 6.1 | 7.8 | 0.00 | 0.00 | 0.00 | 73 | 1014.4 |
| 20260506083023 | 56 | 135 | 3.5 | 6.1 | 0.00 | 0.00 | 0.00 | 72 | 1014.5 |
| 20260506082523 | 55 | 120 | 4.3 | 6.1 | 0.00 | 0.00 | 0.00 | 72 | 1014.5 |
| 20260506082022 | 56 | 118 | 3.5 | 5.2 | 0.00 | 0.00 | 0.00 | 73 | 1014.4 |
| 20260506081522 | 55 | 114 | 3.5 | 5.2 | 0.00 | 0.00 | 0.00 | 73 | 1014.6 |
| 20260506081022 | 54 | 99 | 3.5 | 5.2 | 0.00 | 0.00 | 0.00 | 73 | 1014.6 |
| 20260506080523 | 54 | 109 | 3.5 | 6.1 | 0.00 | 0.00 | 0.00 | 74 | 1014.7 |
| 20260506073522 | 53 | 106 | 2.6 | 4.3 | 0.00 | 0.00 | 0.00 | 74 | 1015.0 |
| 20260506073021 | 53 | 121 | 2.6 | 3.5 | 0.00 | 0.00 | 0.00 | 75 | 1015.0 |
| 20260506072521 | 52 | 117 | 1.7 | 4.3 | 0.00 | 0.00 | 0.00 | 75 | 1015.0 |
| 20260506072021 | 52 | 103 | 2.6 | 4.3 | 0.00 | 0.00 | 0.00 | 75 | 1015.0 |
| 20260506071522 | 52 | 141 | 2.6 | 4.3 | 0.00 | 0.00 | 0.00 | 75 | 1015.2 |
| 20260506071021 | 52 | 135 | 2.6 | 5.2 | 0.00 | 0.00 | 0.00 | 75 | 1015.3 |
| 20260506070523 | 52 | 125 | 1.7 | 5.2 | 0.00 | 0.00 | 0.00 | 74 | 1015.3 |
| 20260506062020 | 48 | 154 | 0.0 | 0.0 | 0.00 | 0.00 | 0.00 | 49 | 1016.0 |
| 20260506061520 | 46 | 268 | 0.0 | 0.0 | 0.00 | 0.00 | 0.00 | 45 | 1016.1 |
| 20260506061020 | 45 | 269 | 0.0 | 0.0 | 0.00 | 0.00 | 0.00 | 41 | 1016.2 |
| 20260506060519 | 45 | 268 | 0.0 | 0.0 | 0.00 | 0.00 | 0.00 | 34 | 1016.3 |
| 20260506051018 | 43 | 127 | 0.9 | 3.5 | 0.00 | 0.00 | 0.00 | 35 | 1016.6 |
| 20260506050518 | 44 | 113 | 1.7 | 3.5 | 0.00 | 0.00 | 0.00 | 39 | 1016.6 |
| 20260506045018 | 43 | 266 | 0.0 | 0.9 | 0.00 | 0.00 | 0.00 | 27 | 1016.9 |
| 20260506044517 | 43 | 266 | 0.0 | 0.9 | 0.00 | 0.00 | 0.00 | 24 | 1017.1 |
| 20260506044017 | 42 | 266 | 0.0 | 0.9 | 0.00 | 0.00 | 0.00 | 22 | 1017.0 |
| 20260506043518 | 42 | 266 | 0.0 | 0.9 | 0.00 | 0.00 | 0.00 | 22 | 1016.9 |
| 20260506043017 | 42 | 266 | 0.0 | 0.9 | 0.00 | 0.00 | 0.00 | 25 | 1016.9 |
| 20260506042517 | 42 | 266 | 0.0 | 1.7 | 0.00 | 0.00 | 0.00 | 30 | 1016.7 |
| 20260506042017 | 42 | 265 | 1.7 | 1.7 | 0.00 | 0.00 | 0.00 | 33 | 1016.7 |
| 20260506041517 | 42 | 319 | 0.0 | 0.0 | 0.00 | 0.00 | 0.00 | 26 | 1016.7 |
| 20260506041017 | 42 | 319 | 0.0 | 0.9 | 0.00 | 0.00 | 0.00 | 17 | 1016.7 |
| 20260506040517 | 41 | 320 | 0.0 | 0.9 | 0.00 | 0.00 | 0.00 | 19 | 1016.7 |
| 20260506040017 | 41 | 355 | 0.0 | 0.9 | 0.00 | 0.00 | 0.00 | 24 | 1016.7 |
| 20260506035516 | 41 | 299 | 0.0 | 0.9 | 0.00 | 0.00 | 0.00 | 31 | 1016.7 |
| 20260506035017 | 41 | 283 | 0.9 | 0.9 | 0.00 | 0.00 | 0.00 | 30 | 1016.6 |
| 20260506034516 | 41 | 92 | 0.0 | 0.0 | 0.00 | 0.00 | 0.00 | 40 | 1016.7 |
| 20260506034016 | 41 | 92 | 0.0 | 0.0 | 0.00 | 0.00 | 0.00 | 47 | 1016.9 |
| 20260506033516 | 41 | 92 | 0.0 | 1.7 | 0.00 | 0.00 | 0.00 | 53 | 1017.0 |
| 20260506033016 | 42 | 92 | 0.9 | 1.7 | 0.00 | 0.00 | 0.00 | 59 | 1017.1 |
| 20260506032516 | 43 | 152 | 0.0 | 1.7 | 0.00 | 0.00 | 0.00 | 52 | 1017.1 |
| 20260506032016 | 44 | 45 | 0.0 | 0.0 | 0.00 | 0.00 | 0.00 | 43 | 1017.3 |
| 20260506031515 | 43 | 47 | 0.0 | 2.6 | 0.00 | 0.00 | 0.00 | 44 | 1017.4 |
| 20260506031016 | 43 | 258 | 0.0 | 4.3 | 0.00 | 0.00 | 0.00 | 47 | 1017.4 |
| 20260506030516 | 43 | 285 | 1.7 | 4.3 | 0.00 | 0.00 | 0.00 | 49 | 1017.2 |
| 20260506030015 | 43 | 278 | 3.5 | 4.3 | 0.00 | 0.00 | 0.00 | 46 | 1017.2 |
| 20260506025516 | 43 | 281 | 2.6 | 3.5 | 0.00 | 0.00 | 0.00 | 52 | 1017.3 |
| 20260506025016 | 43 | 286 | 1.7 | 2.6 | 0.00 | 0.00 | 0.00 | 64 | 1017.4 |
| 20260506024517 | 44 | 86 | 0.0 | 1.7 | 0.00 | 0.00 | 0.00 | 52 | 1017.3 |
| 20260506024015 | 43 | 87 | 0.0 | 1.7 | 0.00 | 0.00 | 0.00 | 50 | 1017.3 |
| 20260506023515 | 43 | 71 | 0.0 | 1.7 | 0.00 | 0.00 | 0.00 | 62 | 1017.5 |
| 20260506023015 | 44 | 120 | 0.0 | 1.7 | 0.00 | 0.00 | 0.00 | 56 | 1017.4 |
| 20260506022515 | 44 | 321 | 0.0 | 2.6 | 0.00 | 0.00 | 0.00 | 55 | 1017.6 |
| 20260506022014 | 43 | 278 | 0.0 | 2.6 | 0.00 | 0.00 | 0.00 | 61 | 1017.8 |
| 20260506021514 | 44 | 269 | 0.0 | 1.7 | 0.00 | 0.00 | 0.00 | 59 | 1017.6 |
| 20260506021014 | 44 | 334 | 0.0 | 0.9 | 0.00 | 0.00 | 0.00 | 57 | 1017.4 |
| 20260506020514 | 43 | 289 | 0.0 | 0.9 | 0.00 | 0.00 | 0.00 | 57 | 1017.3 |
| 20260506020014 | 43 | 289 | 0.0 | 0.9 | 0.00 | 0.00 | 0.00 | 61 | 1017.3 |
| 20260506015515 | 43 | 290 | 0.0 | 0.9 | 0.00 | 0.00 | 0.00 | 67 | 1017.2 |
| 20260506015014 | 44 | 319 | 0.0 | 0.0 | 0.00 | 0.00 | 0.00 | 65 | 1017.3 |
| 20260506014514 | 44 | 319 | 0.0 | 0.9 | 0.00 | 0.00 | 0.00 | 64 | 1017.3 |
| 20260506014012 | 44 | 313 | 0.0 | 1.7 | 0.00 | 0.00 | 0.00 | 64 | 1017.3 |
| 20260506013513 | 44 | 295 | 0.9 | 1.7 | 0.00 | 0.00 | 0.00 | 63 | 1017.5 |
| 20260506013012 | 44 | 295 | 0.9 | 1.7 | 0.00 | 0.00 | 0.00 | 64 | 1017.5 |
| 20260506012509 | 44 | 293 | 0.9 | 0.9 | 0.00 | 0.00 | 0.00 | 66 | 1017.5 |
| 20260506012007 | 44 | 293 | 0.0 | 0.9 | 0.00 | 0.00 | 0.00 | 66 | 1017.4 |
| 20260506011506 | 43 | 118 | 0.0 | 0.0 | 0.00 | 0.00 | 0.00 | 68 | 1017.3 |
| 20260506011006 | 44 | 120 | 0.0 | 0.0 | 0.00 | 0.00 | 0.00 | 68 | 1017.4 |
| 20260506010506 | 44 | 120 | 0.0 | 0.0 | 0.00 | 0.00 | 0.00 | 67 | 1017.3 |
| 20260506010007 | 44 | 120 | 0.0 | 0.0 | 0.00 | 0.00 | 0.00 | 68 | 1017.2 |
| 20260506005507 | 44 | 120 | 0.0 | 0.0 | 0.00 | 0.00 | 0.00 | 69 | 1017.2 |
| 20260506005006 | 44 | 120 | 0.0 | 1.7 | 0.00 | 0.00 | 0.00 | 71 | 1017.1 |
| 20260506004506 | 44 | 120 | 0.0 | 1.7 | 0.00 | 0.00 | 0.00 | 74 | 1017.1 |
| 20260506004007 | 45 | 85 | 0.0 | 0.9 | 0.00 | 0.00 | 0.00 | 75 | 1017.1 |
| 20260506003506 | 46 | 127 | 0.0 | 1.7 | 0.00 | 0.00 | 0.00 | 74 | 1017.1 |
| 20260506003006 | 46 | 327 | 0.0 | 1.7 | 0.00 | 0.00 | 0.00 | 74 | 1017.1 |
| 20260506002506 | 46 | 293 | 0.9 | 1.7 | 0.00 | 0.00 | 0.00 | 74 | 1017.1 |
| 20260506002007 | 46 | 290 | 0.0 | 1.7 | 0.00 | 0.00 | 0.00 | 74 | 1017.1 |
| 20260506001507 | 46 | 300 | 0.0 | 1.7 | 0.00 | 0.00 | 0.00 | 74 | 1017.1 |
| 20260506001007 | 46 | 296 | 0.0 | 1.7 | 0.00 | 0.00 | 0.00 | 74 | 1017.1 |
| 20260506000506 | 46 | 14 | 0.0 | 1.7 | 0.00 | 0.00 | 0.00 | 73 | 1017.2 |
| 20260506000007 | 45 | 6 | 0.0 | 1.7 | 0.00 | 0.00 | 0.00 | 74 | 1017.2 |
| 20260505235506 | 46 | 283 | 0.0 | 2.6 | 0.00 | 0.00 | 0.00 | 74 | 1017.1 |
| 20260505235006 | 46 | 309 | 1.7 | 2.6 | 0.00 | 0.00 | 0.00 | 75 | 1017.3 |
| 20260505234506 | 46 | 296 | 0.0 | 0.9 | 0.00 | 0.00 | 0.00 | 75 | 1017.3 |
| 20260505234006 | 46 | 310 | 0.0 | 0.9 | 0.00 | 0.00 | 0.00 | 75 | 1017.3 |
| 20260505233509 | 46 | 24 | 0.0 | 2.6 | 0.00 | 0.00 | 0.00 | 75 | 1017.4 |
| 20260505233006 | 46 | 116 | 0.0 | 2.6 | 0.00 | 0.00 | 0.00 | 75 | 1017.4 |
| 20260505232506 | 47 | 97 | 0.9 | 2.6 | 0.00 | 0.00 | 0.00 | 74 | 1017.3 |
| 20260505232007 | 48 | 69 | 0.0 | 0.9 | 0.00 | 0.00 | 0.00 | 74 | 1017.2 |
| 20260505231506 | 48 | 310 | 0.0 | 0.9 | 0.00 | 0.00 | 0.00 | 75 | 1017.2 |
| 20260505231006 | 48 | 313 | 0.0 | 0.9 | 0.00 | 0.00 | 0.00 | 75 | 1017.3 |
| 20260505230507 | 47 | 300 | 0.0 | 2.6 | 0.00 | 0.00 | 0.00 | 75 | 1017.2 |
| 20260505230007 | 47 | 298 | 0.9 | 2.6 | 0.00 | 0.00 | 0.00 | 75 | 1017.2 |
| 20260505225506 | 47 | 292 | 0.0 | 2.6 | 0.00 | 0.00 | 0.00 | 75 | 1017.2 |
| 20260505225006 | 47 | 295 | 0.9 | 1.7 | 0.00 | 0.00 | 0.00 | 75 | 1017.1 |
| 20260505224506 | 48 | 288 | 0.0 | 0.9 | 0.00 | 0.00 | 0.00 | 75 | 1017.1 |
| 20260505224006 | 48 | 292 | 0.0 | 0.9 | 0.00 | 0.00 | 0.00 | 74 | 1017.1 |
| 20260505223507 | 48 | 316 | 0.0 | 0.0 | 0.00 | 0.00 | 0.00 | 74 | 1017.0 |
| 20260505223006 | 48 | 316 | 0.0 | 0.0 | 0.00 | 0.00 | 0.00 | 74 | 1017.0 |
| 20260505222506 | 48 | 278 | 0.0 | 0.0 | 0.00 | 0.00 | 0.00 | 74 | 1017.0 |
| 20260505222006 | 49 | 307 | 0.0 | 1.7 | 0.00 | 0.00 | 0.00 | 74 | 1017.0 |
| 20260505221506 | 48 | 298 | 0.0 | 3.5 | 0.00 | 0.00 | 0.00 | 75 | 1017.0 |
| 20260505221007 | 47 | 299 | 0.0 | 3.5 | 0.00 | 0.00 | 0.00 | 75 | 1016.9 |
| 20260505220507 | 48 | 292 | 0.9 | 2.6 | 0.00 | 0.00 | 0.00 | 74 | 1016.9 |
| 20260505220008 | 49 | 288 | 1.7 | 2.6 | 0.00 | 0.00 | 0.00 | 73 | 1016.9 |
| 20260505215506 | 49 | 274 | 0.0 | 3.5 | 0.00 | 0.00 | 0.00 | 73 | 1016.7 |
| 20260505215007 | 49 | 289 | 0.9 | 5.2 | 0.00 | 0.00 | 0.00 | 73 | 1016.7 |
| 20260505214506 | 49 | 286 | 3.5 | 5.2 | 0.00 | 0.00 | 0.00 | 73 | 1016.7 |
| 20260505214006 | 49 | 278 | 0.0 | 3.5 | 0.00 | 0.00 | 0.00 | 73 | 1016.6 |
| 20260505213506 | 49 | 314 | 1.7 | 3.5 | 0.00 | 0.00 | 0.00 | 73 | 1016.9 |
| 20260505213007 | 49 | 336 | 0.0 | 1.7 | 0.00 | 0.00 | 0.00 | 73 | 1016.9 |
| 20260505212506 | 49 | 327 | 0.0 | 1.7 | 0.00 | 0.00 | 0.00 | 72 | 1016.7 |
| 20260505212006 | 50 | 262 | 0.0 | 1.7 | 0.00 | 0.00 | 0.00 | 72 | 1016.6 |
| 20260505211505 | 50 | 348 | 0.0 | 2.6 | 0.00 | 0.00 | 0.00 | 72 | 1016.5 |
| 20260505211006 | 50 | 331 | 1.7 | 2.6 | 0.00 | 0.00 | 0.00 | 71 | 1016.5 |
| 20260505210507 | 50 | 6 | 0.0 | 2.6 | 0.00 | 0.00 | 0.00 | 72 | 1016.5 |
| 20260505210007 | 50 | 23 | 1.7 | 2.6 | 0.00 | 0.00 | 0.00 | 72 | 1016.6 |
| 20260505205506 | 51 | 213 | 0.0 | 0.0 | 0.00 | 0.00 | 0.00 | 70 | 1016.5 |
| 20260505205006 | 51 | 210 | 0.0 | 1.7 | 0.00 | 0.00 | 0.00 | 69 | 1016.5 |
| 20260505204506 | 52 | 165 | 0.0 | 1.7 | 0.00 | 0.00 | 0.00 | 68 | 1016.4 |
| 20260505204007 | 53 | 97 | 0.0 | 4.3 | 0.00 | 0.00 | 0.00 | 67 | 1016.3 |
| 20260505203506 | 52 | 296 | 0.9 | 4.3 | 0.00 | 0.00 | 0.00 | 68 | 1016.2 |
| 20260505203006 | 52 | 285 | 0.9 | 1.7 | 0.00 | 0.00 | 0.00 | 67 | 1016.1 |
| 20260505202508 | 53 | 313 | 0.0 | 3.5 | 0.00 | 0.00 | 0.00 | 66 | 1016.1 |
| 20260505202006 | 53 | 0 | 1.7 | 3.5 | 0.00 | 0.00 | 0.00 | 67 | 1016.1 |
| 20260505201507 | 53 | 292 | 0.0 | 3.5 | 0.00 | 0.00 | 0.00 | 66 | 1016.0 |
| 20260505201006 | 54 | 310 | 0.9 | 3.5 | 0.00 | 0.00 | 0.00 | 66 | 1015.9 |
| 20260505200507 | 53 | 309 | 0.9 | 3.5 | 0.00 | 0.00 | 0.00 | 67 | 1015.9 |
| 20260505200007 | 53 | 299 | 0.9 | 2.6 | 0.00 | 0.00 | 0.00 | 68 | 1015.9 |
| 20260505195507 | 53 | 300 | 0.0 | 3.5 | 0.00 | 0.00 | 0.00 | 68 | 1015.8 |
| 20260505195007 | 53 | 295 | 2.6 | 3.5 | 0.00 | 0.00 | 0.00 | 68 | 1015.8 |
| 20260505194506 | 53 | 303 | 0.9 | 3.5 | 0.00 | 0.00 | 0.00 | 69 | 1015.7 |
| 20260505194007 | 53 | 265 | 0.9 | 2.6 | 0.00 | 0.00 | 0.00 | 66 | 1015.6 |
| 20260505193507 | 54 | 314 | 0.0 | 2.6 | 0.00 | 0.00 | 0.00 | 66 | 1015.4 |
| 20260505193007 | 54 | 307 | 0.9 | 2.6 | 0.00 | 0.00 | 0.00 | 64 | 1015.3 |
| 20260505192508 | 55 | 312 | 0.0 | 0.9 | 0.00 | 0.00 | 0.00 | 63 | 1015.2 |
| 20260505192006 | 56 | 298 | 0.0 | 3.5 | 0.00 | 0.00 | 0.00 | 62 | 1015.1 |
| 20260505191506 | 56 | 316 | 0.9 | 4.3 | 0.00 | 0.00 | 0.00 | 62 | 1015.2 |
| 20260505191005 | 56 | 10 | 0.9 | 4.3 | 0.00 | 0.00 | 0.00 | 63 | 1015.1 |
| 20260505190506 | 56 | 286 | 2.6 | 4.3 | 0.00 | 0.00 | 0.00 | 62 | 1015.0 |
| 20260505190006 | 56 | 314 | 0.0 | 6.1 | 0.00 | 0.00 | 0.00 | 62 | 1014.9 |
| 20260505185506 | 56 | 306 | 1.7 | 6.1 | 0.00 | 0.00 | 0.00 | 62 | 1015.0 |
| 20260505185005 | 57 | 290 | 1.7 | 3.5 | 0.00 | 0.00 | 0.00 | 60 | 1014.8 |
| 20260505184505 | 57 | 314 | 0.0 | 2.6 | 0.00 | 0.00 | 0.00 | 60 | 1014.8 |
| 20260505184006 | 57 | 309 | 0.9 | 2.6 | 0.00 | 0.00 | 0.00 | 61 | 1014.7 |
| 20260505183506 | 57 | 6 | 0.9 | 4.3 | 0.00 | 0.00 | 0.00 | 62 | 1014.6 |
| 20260505183005 | 57 | 283 | 1.7 | 4.3 | 0.00 | 0.00 | 0.00 | 60 | 1014.5 |
| 20260505182505 | 58 | 276 | 0.9 | 4.3 | 0.00 | 0.00 | 0.00 | 57 | 1014.7 |
| 20260505182005 | 58 | 302 | 0.0 | 3.5 | 0.00 | 0.00 | 0.00 | 59 | 1014.5 |
| 20260505181504 | 60 | 296 | 0.9 | 3.5 | 0.00 | 0.00 | 0.00 | 56 | 1014.4 |
| 20260505181005 | 60 | 307 | 0.9 | 2.6 | 0.00 | 0.00 | 0.00 | 55 | 1014.4 |
| 20260505180505 | 60 | 309 | 0.9 | 2.6 | 0.00 | 0.00 | 0.00 | 54 | 1014.3 |
| 20260505180007 | 61 | 305 | 0.9 | 2.6 | 0.00 | 0.00 | 0.00 | 53 | 1014.3 |
| 20260505175504 | 61 | 302 | 1.7 | 2.6 | 0.00 | 0.00 | 0.00 | 53 | 1014.3 |
| 20260505175004 | 62 | 302 | 0.9 | 2.6 | 0.00 | 0.00 | 0.00 | 52 | 1014.3 |
| 20260505174504 | 62 | 329 | 0.0 | 2.6 | 0.00 | 0.00 | 0.00 | 51 | 1014.3 |
| 20260505174004 | 63 | 274 | 0.9 | 2.6 | 0.00 | 0.00 | 0.00 | 50 | 1014.2 |
| 20260505173503 | 63 | 299 | 0.0 | 3.5 | 0.00 | 0.00 | 0.00 | 50 | 1014.0 |
| 20260505173003 | 64 | 34 | 0.9 | 3.5 | 0.00 | 0.00 | 0.00 | 49 | 1014.2 |
| 20260505172504 | 64 | 324 | 0.9 | 3.5 | 0.00 | 0.00 | 0.00 | 49 | 1014.3 |
| 20260505172003 | 65 | 300 | 1.7 | 3.5 | 0.00 | 0.00 | 0.00 | 46 | 1014.0 |
| 20260505171504 | 66 | 305 | 1.7 | 3.5 | 0.00 | 0.00 | 0.00 | 46 | 1014.0 |
| 20260505171004 | 67 | 299 | 0.9 | 3.5 | 0.00 | 0.00 | 0.00 | 46 | 1014.3 |
| 20260505170503 | 67 | 327 | 0.0 | 5.2 | 0.00 | 0.00 | 0.00 | 45 | 1014.2 |
| 20260505170003 | 66 | 97 | 0.9 | 7.8 | 0.00 | 0.00 | 0.00 | 45 | 1014.2 |
| 20260505165503 | 66 | 97 | 1.7 | 7.8 | 0.00 | 0.00 | 0.00 | 45 | 1014.2 |
| 20260505165003 | 66 | 106 | 3.5 | 6.1 | 0.00 | 0.00 | 0.00 | 46 | 1014.3 |
| 20260505164502 | 66 | 134 | 5.2 | 6.1 | 0.00 | 0.00 | 0.00 | 43 | 1014.2 |
| 20260505164003 | 66 | 151 | 3.5 | 5.2 | 0.00 | 0.00 | 0.00 | 44 | 1014.3 |
| 20260505163503 | 67 | 114 | 1.7 | 6.1 | 0.00 | 0.00 | 0.00 | 45 | 1014.3 |
| 20260505163003 | 66 | 82 | 4.3 | 7.8 | 0.00 | 0.00 | 0.00 | 46 | 1014.4 |
| 20260505162502 | 66 | 113 | 4.3 | 7.8 | 0.00 | 0.00 | 0.00 | 46 | 1014.5 |
| 20260505162002 | 66 | 107 | 3.5 | 7.8 | 0.00 | 0.00 | 0.00 | 47 | 1014.5 |
| 20260505161502 | 66 | 135 | 3.5 | 7.8 | 0.00 | 0.00 | 0.00 | 47 | 1014.7 |
| 20260505161003 | 66 | 130 | 5.2 | 7.8 | 0.00 | 0.00 | 0.00 | 45 | 1014.7 |
| 20260505160501 | 66 | 124 | 3.5 | 9.6 | 0.00 | 0.00 | 0.00 | 46 | 1014.8 |
| 20260505153002 | 66 | 113 | 4.3 | 6.1 | 0.00 | 0.00 | 0.00 | 47 | 1014.8 |
| 20260505152501 | 66 | 71 | 3.5 | 4.3 | 0.00 | 0.00 | 0.00 | 46 | 1014.9 |
| 20260505152001 | 66 | 241 | 0.0 | 2.6 | 0.00 | 0.00 | 0.00 | 44 | 1014.9 |
| 20260505151500 | 66 | 295 | 0.0 | 5.2 | 0.00 | 0.00 | 0.00 | 44 | 1015.0 |
| 20260505151000 | 66 | 6 | 0.9 | 7.8 | 0.00 | 0.00 | 0.00 | 42 | 1014.9 |
| 20260505150501 | 66 | 282 | 3.5 | 8.7 | 0.00 | 0.00 | 0.00 | 43 | 1014.9 |
| 20260505140500 | 68 | 199 | 0.9 | 5.2 | 0.00 | 0.00 | 0.00 | 45 | 1014.4 |
| 20260505124958 | 70 | 228 | 1.7 | 4.3 | 0.00 | 0.00 | 0.00 | 40 | 1014.6 |
| 20260505124458 | 69 | 226 | 0.0 | 4.3 | 0.00 | 0.00 | 0.00 | 40 | 1014.5 |
| 20260505123958 | 69 | 100 | 2.6 | 9.6 | 0.00 | 0.00 | 0.00 | 40 | 1014.4 |
| 20260505123458 | 69 | 114 | 6.1 | 9.6 | 0.00 | 0.00 | 0.00 | 40 | 1014.6 |
| 20260505122958 | 69 | 75 | 4.3 | 7.8 | 0.00 | 0.00 | 0.00 | 39 | 1014.5 |
| 20260505122458 | 70 | 121 | 4.3 | 6.1 | 0.00 | 0.00 | 0.00 | 42 | 1014.4 |
| 20260505121957 | 70 | 111 | 3.5 | 8.7 | 0.00 | 0.00 | 0.00 | 38 | 1014.5 |
| 20260505121457 | 70 | 168 | 6.1 | 8.7 | 0.00 | 0.00 | 0.00 | 38 | 1014.5 |
| 20260505120957 | 71 | 118 | 0.9 | 8.7 | 0.00 | 0.00 | 0.00 | 35 | 1014.5 |
| 20260505120457 | 70 | 182 | 1.7 | 8.7 | 0.00 | 0.00 | 0.00 | 42 | 1014.6 |
| 20260505115957 | 70 | 94 | 6.1 | 8.7 | 0.00 | 0.00 | 0.00 | 38 | 1014.4 |
| 20260505115457 | 70 | 128 | 5.2 | 7.8 | 0.00 | 0.00 | 0.00 | 37 | 1014.5 |
| 20260505114957 | 71 | 114 | 4.3 | 8.7 | 0.00 | 0.00 | 0.00 | 35 | 1014.5 |
| 20260505114455 | 71 | 140 | 4.3 | 11.3 | 0.00 | 0.00 | 0.00 | 36 | 1014.6 |
| 20260505113955 | 72 | 127 | 5.2 | 11.3 | 0.00 | 0.00 | 0.00 | 34 | 1014.6 |
| 20260505113455 | 72 | 82 | 5.2 | 10.4 | 0.00 | 0.00 | 0.00 | 36 | 1014.5 |
| 20260505112956 | 73 | 99 | 5.2 | 9.6 | 0.00 | 0.00 | 0.00 | 35 | 1014.5 |